Regional Weather Roundup
Issued by NWS

Home | Current Version | Previous Version | Graphics & Text | Print | Product List | Glossary On
Versions: 1 2 3 4 5 6 7 8 9 10 11 12 13 14 15 16 17 18 19 20 21 22 23 24 25 26 27 28 29 30 31 32 33 34 35 36 37 38 39 40 41 42 43 44 45 46 47 48 49 50
000
ASUS43 KIND 281159
RWRIN

WEATHER ROUNDUP FOR INDIANA
NATIONAL WEATHER SERVICE INDIANAPOLIS IN
800 AM EDT TUE APR 28 2015

NOTE: "FAIR" INDICATES FEW OR NO CLOUDS BELOW 12,000 FEET WITH NO
SIGNIFICANT WEATHER AND/OR OBSTRUCTIONS TO VISIBILITY.

* - STATION DOES NOT REPORT WEATHER SUCH AS PRECIPITATION OR FOG.

+ - STATION NOT QUALITY CONTROLLED BY THE NATIONAL WEATHER SERVICE.
    USE DATA WITH CAUTION...ESPECIALLY DEWPOINT AND RELATIVE
    HUMIDITY OBSERVATIONS.

INZ001>003-010>013-019-020-281300-
NORTHWEST INDIANA

CITY           SKY/WX    TMP DP  RH WIND       PRES   REMARKS

$$

LMZ046-743>745-281300-
SOUTHERN LAKE MICHIGAN

STATION/POSITION TIME  TEMP    WIND        PRES    WAVE
                       AIR SEA DIR/SP/G            HT
                 (UTC) (F)     (DEG/KT/KT) (MB)    (FT)
BURNS HARBOR     1100   42     310/  4/  4 1022.0R
MICHIGAN CITY    1100   40     260/  5/  6   N/A
5NW MICH CITY    1100   41 46  270/  4/  4   N/A     1

$$

INZ004-005-014>016-021>024-281300-
NORTH CENTRAL INDIANA

CITY           SKY/WX    TMP DP  RH WIND       PRES   REMARKS
ELKHART        SUNNY     36  32  87 CALM      30.14F
GOSHEN         SUNNY     35  34  96 CALM      30.16R
6HR MIN TEMP:  31; 6HR MAX TEMP:  36;

SOUTH BEND     SUNNY     37  34  89 CALM      30.17R
6HR MIN TEMP:  33; 6HR MAX TEMP:  37;


$$

INZ006>009-017-018-025>027-281300-
NORTHEAST INDIANA

CITY           SKY/WX    TMP DP  RH WIND       PRES   REMARKS
ANGOLA *+      SUNNY     34  34 100 CALM      30.15R
FORT WAYNE     MOSUNNY   38  35  89 CALM      30.17R
6HR MIN TEMP:  32; 6HR MAX TEMP:  38;


$$

INZ028-029-035-036-043>045-051>053-281300-
WEST CENTRAL INDIANA

CITY           SKY/WX    TMP DP  RH WIND       PRES   REMARKS
CRAWFORDSVL +  FAIR      36  32  85 CALM      30.16R
6HR MIN TEMP:  32; 6HR MAX TEMP:  38;

GREENCASTLE +  SUNNY     39  34  81 N5        30.15R
LAFAYETTE      SUNNY     36  34  92 NW3       30.16R
6HR MIN TEMP:  32; 6HR MAX TEMP:  40;

TERRE HAUTE    SUNNY     42  37  82 N5        30.15R
6HR MIN TEMP:  37; 6HR MAX TEMP:  42;


$$

INZ030>032-037>040-046>048-054>057-064-065-281300-
CENTRAL INDIANA

CITY           SKY/WX    TMP DP  RH WIND       PRES   REMARKS
GREENWOOD *+   SUNNY     41  36  81 N3        30.15R
INDIANAPOLIS   SUNNY     43  36  76 NE6       30.14R
6HR MIN TEMP:  39; 6HR MAX TEMP:  45;

-EAGLE CREEK   SUNNY     42  39  89 N3        30.14R
6HR MIN TEMP:  36; 6HR MAX TEMP:  44;

KOKOMO *+      SUNNY     37  34  87 CALM      30.16R
6HR MIN TEMP:  34; 6HR MAX TEMP:  39;

MT COMFORT *+  SUNNY     36 N/A N/A CALM      30.15R
SHELBYVILLE    SUNNY     43  36  76 NE6       30.13R
6HR MIN TEMP:  36; 6HR MAX TEMP:  45;


$$

INZ033-034-041-042-049-050-058-059-281300-
EAST CENTRAL INDIANA

CITY           SKY/WX    TMP DP  RH WIND       PRES   REMARKS
MUNCIE         SUNNY     39  37  92 CALM      30.15R
6HR MIN TEMP:  34; 6HR MAX TEMP:  39;


$$

INZ060-061-067>069-081>083-085>088-281300-
SOUTHWEST INDIANA

CITY           SKY/WX    TMP DP  RH WIND       PRES   REMARKS
EVANSVILLE     SUNNY     46  38  73 NE7       30.11R
6HR MIN TEMP:  43; 6HR MAX TEMP:  48;

HUNTINGBURG *+ SUNNY     43  36  75 N6        30.11R
6HR MIN TEMP:  39; 6HR MAX TEMP:  45;


$$

INZ062-063-066-070>080-084-089>092-281300-
SOUTH CENTRAL AND SOUTHEAST INDIANA

CITY           SKY/WX    TMP DP  RH WIND       PRES   REMARKS
BLOOMINGTON    SUNNY     43  38  82 NE8       30.12R
6HR MIN TEMP:  35; 6HR MAX TEMP:  43;

MADISON *+     SUNNY     43  36  75 NE5       30.13R
SEYMOUR +      SUNNY     45  39  81 NE6       30.12R

$$




USA.gov is the U.S. government's official web portal to all federal, state and local government web resources and services.